This is the latest recevied weather packets stored in our database for station/object XE1E-15. If no packets are shown the sender has not sent any weather packets the latest 10 day(s).
| Time | Temp. | Humidity | Pressure | Rain* | Wind** | Luminosity | Snow |
|---|---|---|---|---|---|---|---|
| 1777798790 | 23.33° C | 56% | 1024.2 hPa | - | - | - | - |
| 1777797929 | 25° C | 52% | 1024.2 hPa | - | - | - | - |
| 1777797830 | 25° C | 52% | 1024.2 hPa | - | - | - | - |
| 1777796903 | 24.44° C | 53% | 1024.2 hPa | - | - | - | - |
| 1777796869 | 24.44° C | 53% | 1024.2 hPa | - | - | - | - |
| 1777795909 | 25° C | 52% | 1024 hPa | - | - | - | - |
| 1777794949 | 25° C | 52% | 1024.1 hPa | - | - | - | - |
| 1777793510 | 25° C | 53% | 1024.2 hPa | - | - | - | - |
| 1777792550 | 25.56° C | 52% | 1024.4 hPa | - | - | - | - |
| 1777791590 | 25° C | 52% | 1024.6 hPa | - | - | - | - |
| 1777790630 | 25.56° C | 51% | 1024.5 hPa | - | - | - | - |
| 1777789670 | 25.56° C | 52% | 1024.6 hPa | - | - | - | - |
| 1777788710 | 25.56° C | 51% | 1024.6 hPa | - | - | - | - |
| 1777787750 | 25.56° C | 51% | 1024.5 hPa | - | - | - | - |
| 1777786790 | 25° C | 52% | 1024.7 hPa | - | - | - | - |
| 1777785829 | 25.56° C | 51% | 1024.5 hPa | - | - | - | - |
| 1777784869 | 25° C | 51% | 1024.6 hPa | - | - | - | - |
| 1777783909 | 24.44° C | 53% | 1024.5 hPa | - | - | - | - |
| 1777782949 | 24.44° C | 53% | 1024.3 hPa | - | - | - | - |
| 1777781989 | 24.44° C | 53% | 1024.4 hPa | - | - | - | - |
| 1777781029 | 25° C | 51% | 1024.3 hPa | - | - | - | - |
| 1777780069 | 25° C | 53% | 1024.3 hPa | - | - | - | - |
| 1777779109 | 24.44° C | 55% | 1024.1 hPa | - | - | - | - |
| 1777778148 | 25° C | 51% | 1023.7 hPa | - | - | - | - |
| 1777777188 | 25.56° C | 51% | 1023.2 hPa | - | - | - | - |
* Rain since midnight (hover to see other rain measurements)
** Current wind speed in m/s (hover to see current wind gust speed)